星链-35072 (STARLINK-35072)

导读 | 豆包AI

STARLINK-35072是美国SpaceX星链星座的卫星,于2025年9月5日发射入轨,隶属于星链低轨互联网星座组网卫星。星链星座旨在为全球提供高速低延迟宽带互联网服务,该卫星延续了星链批量部署的模式,进一步扩充了星座规模,助力全球覆盖网络的搭建,提升星座服务的容量与覆盖稳定性。

基本信息
目录编号:
65505
目录名称:
STARLINK-35072
国际标识:
2025-198P
轨道中心:
EARTH
卫星名称:
星链-35072
卫星全名:
星链-35072 (STARLINK-35072)
卫星状态:
在轨 (已飞行190 天)
发射日期:
2025-09-05 UTC
国别 :
美国 (US)
星等 :
--
轨道信息
数据来源 国际轨道数据 AOE轨道数据
星历时间 2026-03-13T19:47:17+0800
22小时前
查看轨道信息
2026-03-12T09:00:00+0800
2天前
查看轨道信息
半长轴 6853.299km 6853.387km
偏心率 0.0001711 0.000123
轨道倾角 53.158° 53.159°
近地点辐角 105.616° 73.456°
升交点赤经 253.228° 259.962°
平近点角 254.503° 217.322°
近地点 473.989km 474.407km
远地点 476.335km 476.093km
周期 94.104分钟 94.106分钟
每日圈数 15.302181 15.301886
详细信息
固有亮度:
5
最大亮度:
2.5
卫星平台:
Starlink V1.0
覆盖范围:
全球
运营商:
太空探索技术公司
运营商所在国:
美国
制造商(研发单位):
太空探索技术公司
制造商所在国:
美国
使用方式:
暂无
卫星简介
Starlink 计划是 SpaceX 推出的全球卫星互联网项目,通过发射低轨道卫星,为全球尤其是偏远地区提供高速、低延迟的互联网服务。自 2019 年起,Starlink 已部署数千颗卫星,旨在缩小全球数字鸿沟,推动互联网普及。该项目还为军事、航空等行业提供通信支持,带来广泛经济效益。
2D轨道图
3D轨道图
轨道高度分析图
轨道倾角分析图
轨道综合分析图
查看轨道综合分析图